Weather in Poyarkovo

Russia / Amur Oblast     49°37′34″N   128°39′27″E
temp.,
°C
wind,
m/s
gust,
m/s
humid.,
%
clouds,
%
prec.,
mm/h
press.,
hPa
HPBL,
m
28 november, sun
sun2800:00−13se369265 0.0 102970
03:00−13se379388 0.0 102779
06:00−14se3495100 0.0 102647
09:00−12ssw2397100 0.1 102561
12:00−8w3493100 0.1 1023285
15:00−9wnw3694100 0.1 1023247
18:00−16wnw2298100 0.0 102418
21:00−17wnw24100100 0.0 102339
29 november, mon
mon2900:00−12wnw2696100 0.1 1023148
03:00−9nw5994100 0.4 1022453
06:00−10nw4108759 0.2 1024379
09:00−16nw310925 0.2 1026154
12:00−13nw48855 0.0 1026309
15:00−14wnw22915 0.0 102730
18:00−22w11985 0.0 10289
21:00−23ssw0098100 0.0 10289
30 november, tue
tue3000:00−23se2298100 0.0 102712
03:00−22se2298100 0.0 102516
06:00−24ese2298100 0.0 102418
09:00−21ese239772 0.0 102345
12:00−15e118972 0.0 102291
15:00−14nne119583 0.0 102025
18:00−16n359778 0.0 101973
21:00−20nnw379996 0.0 101992
1 december, wed
wed100:00−20nnw4119949 0.0 1018151
03:00−19nnw5149760 0.0 1017250
06:00−20nnw615905 0.0 1016281
09:00−20nw615915 0.0 1015286
12:00−16nw615865 0.0 1012502
15:00−14nw613855 0.0 1010507
18:00−18nw512935 0.0 1009207
21:00−21nw36975 0.0 100864
2 december, thu
thu200:00−25wnw3510013 0.0 100752
03:00−27nw3410012 0.0 100648
06:00−27nw36985 0.0 100658
09:00−27wnw36955 0.0 100764
12:00−18wnw49885 0.0 1006246
15:00−16w37925 0.0 1006166
18:00−22w3510026 0.0 100841
21:00−20wnw37945 0.0 100976